UFO 11 (USA 174)

导读

UFO 11(USA 174)是美国于2003年12月18日发射的“特高频后继”系列军用通信卫星,也是该系列的第11颗卫星,部署于地球静止轨道。它依托HS601平台研制,属于美国国防部卫星通信系统空间段,增强了特高频与极高频载荷能力,为美军各作战单元提供抗干扰的战术窄带通信服务,支撑C4ISR系统运行,设计寿命14年,由美国空军负责运营管控。

基本信息
目录编号:
28117
目录名称:
UFO 11 (USA 174)
国际标识:
2003-057A
轨道中心:
EARTH
卫星名称:
UFO 11 (USA 174)
卫星全名:
--
卫星状态:
在轨 (已飞行8215 天)
发射日期:
2003-12-18 UTC
国别 :
美国 (US)
星等 :
--
轨道信息
数据来源 国际轨道数据 AOE轨道数据
星历时间 2026-06-15T05:35:06+0800
6小时前
查看轨道信息
2026-06-15T06:00:00+0800
5小时前
查看轨道信息
半长轴 42164.027km 42163.971km
偏心率 0.0002604 0.0002594
轨道倾角 8.933° 8.934°
近地点辐角 55.803° 52.506°
升交点赤经 33.840° 33.844°
平近点角 212.934° 222.471°
近地点 35774.91km 35774.896km
远地点 35796.87km 35796.772km
周期 1436.061分钟 1436.058分钟
每日圈数 1.002743 1.002745
详细信息
使用方式:
暂无
2D轨道图
3D轨道图
轨道高度分析图
轨道倾角分析图
轨道综合分析图
查看轨道综合分析图